Change the Weather History Date:

Saturday, March 9, 2013

  Actual Average Record
Temperature  
Mean Temperature 38 °F -  
Max Temperature 57 °F - - ()
Min Temperature 19 °F - - ()
Degree Days  
Heating Degree Days 27    
Moisture  
Dew Point 22 °F    
Average Humidity 55    
Maximum Humidity 93    
Minimum Humidity 15    
Precipitation  
Precipitation 0.04 in - - ()
Sea Level Pressure  
Sea Level Pressure 30.16 in    
Wind  
Wind Speed 3 mph ()    
Max Wind Speed 16 mph    
Max Gust Speed -    
Visibility 6.2 miles    
Events      
T = Trace of Precipitation, MM = Missing Value Source: Averaged Metar Reports

Daily Weather History Graph

Daily Weather History Graph

Search for Another Location

Airport or City:

Trip Planner

Search our weather history database for the weather conditions in past years. The results will help you decide how hot, cold, wet, or windy it might be!

Date:

Astronomy

Mar. 09, 2013 Rise Set
Actual Time 6:24 AM IRST 6:10 PM IRST
Civil Twilight 6:00 AM IRST 6:34 PM IRST
Nautical Twilight 5:31 AM IRST 7:03 PM IRST
Astronomical Twilight 5:03 AM IRST 7:31 PM IRST
Moon 4:26 AM IRST (3/9) 3:52 PM IRST (3/9)
Length of Visible Light 12h 34m
Length of Day
11h 45m
Waning Crescent, 7% of the Moon is Illuminated
Mar 9
Waning Crescent
Mar 11
New
Mar 19
First Quarter
Mar 27
Full
Apr 3
Last Quarter

Hourly Weather History & Observations

Time (IRST) Temp. Windchill Dew Point Humidity Pressure Visibility Wind Dir Wind Speed Gust Speed Precip Events Conditions
12:30 AM 26.6 °F - 21.2 °F 80% 30.24 in - Calm Calm - N/A   Clear
1:30 AM 24.8 °F - 19.4 °F 80% 30.24 in - Calm Calm - N/A   Clear
2:30 AM 23.0 °F - 19.4 °F 86% 30.21 in - Calm Calm - N/A   Clear
3:30 AM 23 °F - 21 °F 87% 30.25 in 6 mi Calm Calm - -  
3:30 AM 23.0 °F - 21.2 °F 93% 30.21 in - Calm Calm - N/A   Clear
4:30 AM 23.0 °F - 19.4 °F 86% 30.21 in - Calm Calm - N/A   Clear
5:30 AM 21.2 °F - 17.6 °F 86% 30.21 in - Calm Calm - N/A   Clear
6:30 AM 19.4 °F - 17.6 °F 93% 30.21 in - Calm Calm - N/A   Clear
7:30 AM 23.0 °F - 19.4 °F 86% 30.21 in - Calm Calm - N/A   Clear
8:30 AM 30.2 °F 25.4 °F 21.2 °F 69% 30.21 in 6.2 mi SSW 4.6 mph - N/A   Mostly Cloudy
9:30 AM 34 °F - 23 °F 52% 30.29 in 6 mi SSW 4.5 mph - -   Scattered Clouds
9:30 AM 33.8 °F 29.6 °F 23.0 °F 65% 30.24 in 6.2 mi SSW 4.6 mph - N/A   Mostly Cloudy
10:30 AM 39.2 °F 35.9 °F 24.8 °F 56% 30.24 in 6.2 mi SE 4.6 mph - N/A   Mostly Cloudy
11:30 AM 42.8 °F - 26.6 °F 53% 30.21 in 6.2 mi Calm Calm - N/A   Mostly Cloudy
12:30 PM 46.4 °F - 26.6 °F 46% 30.18 in 6.2 mi Calm Calm - N/A   Mostly Cloudy
1:30 PM 51.8 °F - 32.0 °F 47% 30.15 in 6.2 mi Calm Calm - N/A   Mostly Cloudy
2:30 PM 55.4 °F - 21.2 °F 26% 30.12 in 6.2 mi SW 13.8 mph - N/A   Scattered Clouds
3:30 PM 57 °F - 22 °F 15% 30.03 in 6 mi SW 13.4 mph - -   Scattered Clouds
3:30 PM 57.2 °F - 21.2 °F 25% 30.09 in 6.2 mi SW 13.8 mph - N/A   Scattered Clouds
4:30 PM 57.2 °F - 21.2 °F 25% 30.09 in 6.2 mi SW 6.9 mph - N/A   Scattered Clouds
5:30 PM 55.4 °F - 23.0 °F 29% 30.09 in 6.2 mi SSW 9.2 mph - N/A   Scattered Clouds
6:30 PM 50.0 °F - 17.6 °F 28% 30.09 in 6.2 mi SE 13.8 mph - N/A   Scattered Clouds
7:30 PM 50.0 °F - 14.0 °F 24% 30.09 in 6.2 mi South 16.1 mph - N/A   Scattered Clouds
8:30 PM 46.4 °F 42.9 °F 19.4 °F 34% 30.09 in 6.2 mi SE 6.9 mph - N/A   Scattered Clouds
9:30 PM 41 °F - 21 °F 31% 30.06 in 6 mi SE 6.7 mph - -   Scattered Clouds
9:30 PM 41.0 °F 36.4 °F 21.2 °F 45% 30.09 in 6.2 mi SE 6.9 mph - N/A   Scattered Clouds
10:30 PM 46.4 °F 42.9 °F 24.8 °F 43% 30.09 in 6.2 mi WNW 6.9 mph - N/A   Scattered Clouds
11:30 PM 39.2 °F 33.0 °F 24.8 °F 56% 30.09 in 6.2 mi West 9.2 mph - N/A   Scattered Clouds